Regional Weather Roundup
Issued by NWS Upton, NY

Current Version | Previous Version | Graphics & Text | Print | Product List | Glossary Off
Versions: 1 2 3 4 5 6 7 8 9 10 11 12 13 14 15 16 17 18 19 20 21 22 23 24 25 26 27

000
ASUS41 KOKX 251809
RWROKX

REGIONAL WEATHER ROUNDUP
NATIONAL WEATHER SERVICE NEW YORK NY
200 PM EDT THU MAY 25 2017

NOTE: "FAIR" INDICATES FEW OR NO CLOUDS BELOW 12,000 FEET WITH NO
SIGNIFICANT WEATHER AND/OR OBSTRUCTIONS TO VISIBILITY.

NYZ071-072-176-178-NJZ106-104-251900-
NEW YORK CITY METRO AREA

CITY           SKY/WX    TMP DP  RH WIND       PRES   REMARKS
Central Park   LGT RAIN  57  56  96 E13G20    29.61F FOG
Wall St Helipt LGT RAIN  59  57  93 NE15      29.58F FOG
Bronx Bot Gard   N/A     55  54  94 E8        29.62F
LaGuardia APRT LGT RAIN  57  55  93 NE20      29.58F FOG
Kennedy INTL   DRIZZLE   59  59 100 E16G24    29.59F FOG
Breezy Point     N/A     55 N/A N/A E16G25      N/A
Newark/Liberty DRIZZLE   59  58  96 NE8       29.58F FOG
Teterboro      LGT RAIN  58  56  93 E9        29.58F FOG
$$

NYZ177-179-078>081-251900-
LONG ISLAND NEW YORK

CITY           SKY/WX    TMP DP  RH WIND       PRES   REMARKS
Jones Beach      N/A     55 N/A N/A E23G30      N/A
Matinecock PT  NOT AVBL
Farmingdale    CLOUDY    59  58  96 E12       29.60S
MacArthur/ISP  DRIZZLE   58  58 100 E15       29.60F FOG
Shirley        LGT RAIN  58  58 100 E8        29.62F FOG
Mt Sinai Harb    N/A     55 N/A N/A E12G18      N/A
Westhampton    LGT RAIN  57  55  93 E13G21    29.65F FOG
East Hampton   CLOUDY    55  53  95 E8        29.65F FOG
Montauk          N/A     55  54  96 E12G18    29.67F
$$

NYZ052-065-067-251900-
HUDSON VALLEY

CITY           SKY/WX    TMP DP  RH WIND       PRES   REMARKS
White Plains   LGT RAIN  56  54  93 E15G23    29.60F FOG
Larchmont Harb   N/A     54 N/A N/A NE32        N/A
Croton O-T Hud   N/A     57 N/A N/A MISG        N/A
Newburgh       LGT RAIN  57  57 100 E12       29.64S VSB 1
Montgomery     LGT RAIN  59  57  93 NE9       29.61F FOG
Poughkeepsie   LGT RAIN  59  56  89 E5        29.61F FOG
Albany         LGT RAIN  56  52  86 NE7       29.68F
$$

NJZ001-105-106-008-010-013-015-019>022-104-251900-
NEW JERSEY

CITY           SKY/WX    TMP DP  RH WIND       PRES   REMARKS
Newark/Liberty DRIZZLE   59  58  96 NE8       29.58F FOG
Teterboro      LGT RAIN  58  56  93 E9        29.58F FOG
Caldwell       LGT RAIN  59  56  89 E6        29.60F FOG
Somerville     LGT RAIN  60  58  92 E5        29.56F FOG
Linden         DRIZZLE   59  57  93 SE13      29.59F
Perth Amboy      N/A     55 N/A N/A E10         N/A
Sussex         CLOUDY    59  57  93 NE9       29.59F
Andover          N/A     60  54  80 VRB5      29.58F
Trenton        CLOUDY    60  59  96 E14       29.55F FOG
Millville      MOSUNNY   75  67  76 SW8       29.50S
Atlantic City  CLOUDY    70  65  84 S8        29.52S
Wrightstown    CLOUDY    61  60  96 E6        29.52F FOG
Toms River     LGT RAIN  62  61  96 E8        29.55F VSB 1
Belmar         LGT RAIN  57  57 100 E9        29.57S VSB 1
$$

PAZ047>061-062-071-251900-
EASTERN PENNSYLVANIA

CITY           SKY/WX    TMP DP  RH WIND       PRES   REMARKS
Philadelphia   CLOUDY    64  61  90 NE9       29.52S
Allentown      CLOUDY    61  57  87 E9        29.55F
Scranton       CLOUDY    65  56  72 E14G28    29.52S
$$

CTZ002-004>006-009-010-012-RIZ004-006-007-MAZ004-011-015-251900-
SOUTHERN NEW ENGLAND
 IN CT

CITY           SKY/WX    TMP DP  RH WIND       PRES   REMARKS
Bradley INTL   LGT RAIN  57  56  96 NE9       29.70F FOG
Hartford       LGT RAIN  58  55  90 NE8       29.68F FOG
Danbury        LGT RAIN  58  57  97 E13       29.64F FOG
Wtrbury/Oxford DRIZZLE   57  52  82 E12G17    29.67F FOG
Bridgeport     LGT RAIN  58  55  90 E22       29.64F
Meriden        LGT RAIN  58  56  93 NE5       29.66F
New Haven      CLOUDY    59  57  93 E9        29.64F FOG
Chester        LGT RAIN  57  57 100 E10G17    29.66F VSB 1
Groton         LGT RAIN  59  56  89 E14G23    29.66F FOG
Wilimantic     LGT RAIN  59  56  89 NE10      29.70F

 IN RI

CITY           SKY/WX    TMP DP  RH WIND       PRES   REMARKS
Providence     LGT RAIN  56  56 100 NE13      29.73F FOG
Block Island   LGT RAIN  54  53  97 NE15G22   29.67F FOG
Westerly       LGT RAIN  58  56  93 NE12G18   29.68F FOG
 IN MA

CITY           SKY/WX    TMP DP  RH WIND       PRES   REMARKS
Boston         LGT RAIN  52  51  97 NE17      29.78F VSB 1
Worcester      LGT RAIN  50  48  93 NE14G25   29.75F FOG
Westfield      RAIN      55  55 100 NE7       29.71F FOG
Provincetown   LGT RAIN  53  52  96 E17G23    29.76R FOG
Nantucket      CLOUDY    55  53  93 E15       29.69F FOG
$$

ANZ330-335-338-340-345-350-353-355-251900-
COASTAL MARINE OBSERVATIONS


STATION/POSITION TIME  SKY/WX   TEMP    WIND        PRES    VSBY  WAVE
                                AIR SEA DIR/SP/G                  HT/PER
                 (UTC)          (F)     (DEG/KT/KT) (MB)    (MI)  (FT/S)
NY HARB ENTRANCE 1650            56 56   90/ 19/ 25 1001.6          7/ 6
20 S FIRE ISLAND 1750            54 54   80/ 17/ 19 1001.2          6/ 6
GREAT SOUTH BAY  1730            57 63   80/ 21/ 27   N/A
23 SSW MONTAUK P 1650            53 53              1004.0          6/ 6
15 E BARNEGAT LI 1700               56                N/A           6/ 6
HUDSON CANYON    1650            58 53  130/  8/ 10 1002.1          5/ 7
KINGS POINT      1748            57 57   40/  7/  9 1002.0
EXECUTION ROCKS  1745            56                   N/A
CENTRAL LI SOUND NOT AVBL
EASTERN LI SOUND NOT AVBL
ROBBINS REEF     1748            58      60/ 11/ 12 1002.1
$$


>>>>>>>>>>>>>>>>>>>>>>>>>>>> KEY <<<<<<<<<<<<<<<<<<<<<<<<<<<
>                                                          <
>     SKY/WX - Sky Condition/Present Weather               <
>     TMP    - Temperature in Fahrenheit                   <
>     DP     - Dew Point in Fahrenheit                     <
>     RH     - Relative Humidity in Percent                <
>     WIND   - Direction (from) and Speed in MPH           <
>     PRES   - Mean Sea Level Pressure (inches of Hg)      <
>     WCI    - Wind Chill Index                            <
>     VSB    - VISIBILITY IN MILES                         <
>     HX     - HEAT INDEX                                  <
>     TC     - TEMPERATURE IN CELSIUS                      <
>     VRB    - VARIABLE WIND DIRECTION                     <
>                                                          <
>>>>>>>>>>>>>>>>>>>>>>>>>>>> KEY <<<<<<<<<<<<<<<<<<<<<<<<<<<




USA.gov is the U.S. government's official web portal to all federal, state and local government web resources and services.